Regional Weather Roundup
Issued by NWS

Home | Current Version | Previous Version | Text Only | Print | Product List | Glossary Off
Versions: 1 2 3 4 5 6 7 8 9 10 11 12 13 14 15 16 17 18 19 20 21 22 23 24 25 26 27 28 29 30 31 32 33 34 35 36 37 38 39 40 41 42 43 44 45 46 47 48 49 50

000
ASUS43 KLSX 060159
RWRMO

WEATHER SUMMARY FOR MISSOURI
NATIONAL WEATHER SERVICE SPRINGFIELD MO
900 PM CDT SUN JUL 05 2015

NOTE: "FAIR" INDICATES FEW OR NO CLOUDS BELOW 12,000 FEET WITH NO
       SIGNIFICANT WEATHER AND/OR OBSTRUCTIONS TO VISIBILITY.
       CURRENT SKY AND/OR WEATHER CONDITIONS ARE NOT AVAILABLE FOR
       CHILLICOTHE AND FARMINGTON.

MOZ001>031-035>038-043-044-053-054-060300-
...NORTHERN AND WESTERN MISSOURI...

CITY           SKY/WX    TMP DP  RH WIND       PRES   REMARKS
KANSAS CTY INT PTCLDY    83  74  74 S13       29.89S
KANSAS C DTWN  CLEAR     87  74  64 S9        29.88S HX  95
LEE`S SUMMIT   CLEAR     84  74  71 SE7       29.91S HX  91
ST JOSEPH      PTCLDY    84  74  71 SE10      29.87R HX  91
CHILLICOTHE      N/A     83  73  72 SE9       29.92S
KIRKSVILLE     PTCLDY    76  68  76 SE8       29.95S

$$
MOZ066>068-077>081-088>096-101>105-060300-
...SOUTHWEST MISSOURI...

CITY           SKY/WX    TMP DP  RH WIND       PRES   REMARKS
SPRINGFIELD    PTCLDY    72  68  87 SE6       29.99R
JOPLIN         MOCLDY    78  66  66 S16       29.95S

$$
MOZ032>034-039>042-045>050-055>058-069>072-060300-
...CENTRAL MISSOURI...

CITY           SKY/WX    TMP DP  RH WIND       PRES   REMARKS
COLUMBIA       CLEAR     78  71  79 SE6       29.97F
JEFFERSON CITY CLEAR     80  71  74 E5        29.95F
ROLLA          CLEAR     76  71  85 SE7       30.00S
SEDALIA        CLEAR     79  68  69 S10       29.96S
OSAGE BEACH    CLEAR     77  66  69 SE3       29.97S

$$
MOZ051-052-059>065-060300-
...EAST CENTRAL MISSOURI...

CITY           SKY/WX    TMP DP  RH WIND       PRES   REMARKS
ST LOUIS INTL  MOCLDY    83  66  56 S10       30.01R HAZE
SPIRIT OF STL  PTCLDY    79  69  71 SE5       29.99R HAZE
ST CHARLES     MOCLDY    77  71  82 SE6       29.99R

$$
MOZ072>076-082>087-097>100-106>115-060300-
...SOUTH CENTRAL AND SOUTHEAST MISSOURI...

CITY           SKY/WX    TMP DP  RH WIND       PRES   REMARKS
CAPE GIRARDEAU CLEAR     75  70  84 S3        30.04R
FARMINGTON     PTCLDY    73  70  88 S5        30.09R
POPLAR BLUFF   CLEAR     79  72  79 S8        30.03R
WEST PLAINS    CLEAR     77  71  82 SE5       30.05S

$$



USA.gov is the U.S. government's official web portal to all federal, state and local government web resources and services.